Weather
NORAD ID: 27453
Int'l Code: 2002-032A
Perigee: 809.2 km
Apogee: 824.9 km
Inclination: 98.3 °
Period: 101.1 minutes
Semi major axis: 7188 km
Launch date: June 24, 2002
Source: United States (US)
Comments: Polar-orbiting satellite; long-range weather forecasting; atmospheric and weather monitoring instruments; data stored on-board and transmitted over Fairbanks, AK and Wallops Island, VA.
Two Line Element Set (TLE):
1 27453U 02032A 13144.48780442 .00000103 00000-0 61981-4 0 1409
2 27453 098.3127 159.8259 0010928 230.4504 286.9546 14.24590632567341
Source: AFSPC
NASA's NSSDC Master Catalog entry for NOAA 17